Overview Statistics Trail Chart Weather Telemetry Raw packets
 

This is the latest recevied weather packets stored in our database for station/object K7DC. If no packets are shown the sender has not sent any weather packets the latest 10 day(s).

<< 101 102 103 104 105 106 107 >>
Time Temp. Humidity Pressure Rain* Wind** Luminosity Snow
1787878209 35.56° C 29% 1012.9 hPa 0 mm - 32 W/m² -
1787877905 35.56° C 29% 1013.2 hPa 0 mm - 35 W/m² -
1787877600 36.11° C 29% 1013.1 hPa 0 mm - 36 W/m² -
1787877295 36.67° C 28% 1013.1 hPa 0 mm - 40 W/m² -
1787876995 36.67° C 27% 1013.3 hPa 0 mm - 49 W/m² -
1787876691 37.22° C 26% 1012.9 hPa 0 mm - 50 W/m² -
1787876386 37.78° C 26% 1012.7 hPa 0 mm - 45 W/m² -
1787876085 38.89° C 25% 1012.8 hPa 0 mm - 54 W/m² -
1787875781 38.89° C 25% 1012.6 hPa 0 mm - 72 W/m² -
1787875479 38.89° C 24% 1012.4 hPa 0 mm - 65 W/m² -
1787875178 39.44° C 23% 1012 hPa 0 mm - 66 W/m² -
1787874877 39.44° C 23% 1012.2 hPa 0 mm - 66 W/m² -
1787874572 39.44° C 23% 1012.1 hPa 0 mm - 64 W/m² -
1787874267 40° C 23% 1012 hPa 0 mm - 62 W/m² -
1787873967 40° C 24% 1012.5 hPa 0 mm - 74 W/m² -
1787873666 40° C 22% 1012.5 hPa 0 mm - 106 W/m² -
1787873361 40.56° C 23% 1012.4 hPa 0 mm - 116 W/m² -
1787873060 41.11° C 23% 1012.5 hPa 0 mm - 134 W/m² -
1787872755 41.11° C 23% 1012.1 hPa 0 mm - 263 W/m² -
1787872452 40.56° C 23% 1012 hPa 0 mm - 384 W/m² -
1787872146 40.56° C 23% 1012.1 hPa 0 mm - 391 W/m² -
1787871845 41.11° C 23% 1011.9 hPa 0 mm - 406 W/m² -
1787871540 41.11° C 22% 1011.8 hPa 0 mm - 428 W/m² -
1787871236 42.22° C 22% 1011.6 hPa 0 mm - 450 W/m² -
1787870931 42.78° C 21% 1011.9 hPa 0 mm - 470 W/m² -

* Rain latest hour (hover to see other rain measurements)
** Current wind speed in m/s (hover to see current wind gust speed)